[[{"header":{"parameterUnit":"m.s-1","parameterCategory":1,"la1":30.2991,"la2":30.254,"lo1":-89.0895,"lo2":-89.0444,"dy":0.0017,"dx":0.0017,"nx":28,"ny":28,"refTime":"2023-03-31T21:00:00:Z","depth":0,"parameterNumber":2,"parameterNumberName":"U-component_of_WINDS"},"data":[0,0,0,0,0,0,0,0,0,0,0,0,0,0,0,0,0,0,0,0,0,0,0,0,0,0,0,0,0,0,0,0,0,0,0,0,0,0,0,0,0,0,0,0,0,0,0,0,0,0,0,0,0,0,0,0,0,0,-3.6828,-3.6827,0,-3.677,-3.677,-3.6769,-3.6617,-3.6613,-3.661,-3.6607,-3.6553,-3.6554,-3.6556,0,0,0,0,0,0,0,0,0,0,0,0,0,-3.6811,-3.6812,-3.6828,-3.6827,-3.6826,-3.6771,-3.677,-3.6769,-3.6617,-3.6613,-3.6609,-3.6606,-3.6552,-3.6554,-3.6556,0,0,0,0,0,0,0,0,0,0,0,0,0,-3.6792,-3.6812,-3.6828,-3.6744,-3.6735,-3.6771,-3.677,-3.6769,-3.6618,-3.6613,-3.6608,-3.6604,-3.6552,-3.6554,-3.6556,-3.667,0,0,-3.6564,-3.6565,0,0,0,0,0,0,0,0,-3.6794,-3.6793,-3.6757,-3.6749,-3.674,-3.6695,-3.6744,-3.6736,-3.6619,-3.6663,-3.6607,-3.6601,-3.6605,-3.6602,-3.6603,-3.6667,-3.6665,-3.6564,-3.6566,-3.6567,-3.6567,0,0,0,0,0,0,0,-3.6795,-3.6795,-3.6805,-3.6756,-3.6747,-3.6711,-3.6702,-3.6742,-3.6662,-3.6659,-3.6647,-3.6643,-3.6599,-3.6601,-3.66,-3.6664,-3.6564,-3.6566,-3.6568,-3.6569,-3.6822,-3.6827,0,0,0,0,0,0,-3.6808,-3.6797,-3.6807,-3.6803,-3.6755,-3.6715,-3.6706,-3.6715,-3.6661,-3.6648,-3.6647,-3.6636,-3.6599,-3.6598,-3.6598,-3.6729,-3.6567,-3.6569,-3.657,-3.6817,-3.6823,-3.6829,0,0,0,0,0,0,-3.6808,-3.681,-3.6809,-3.6797,-3.6794,-3.672,-3.6732,-3.6716,-3.6717,-3.6652,-3.6638,-3.6662,-3.6595,-3.6594,-3.6653,-3.6725,-3.657,-3.6572,-3.6811,-3.6819,-3.6826,-3.6992,0,0,0,0,0,0,-3.6808,-3.6811,-3.6852,-3.6799,-3.6795,-3.6865,-3.6736,-3.6719,-3.6722,-3.6707,-3.6663,-3.6651,-3.6591,-3.6651,-3.6656,-3.6725,-3.6574,-3.6804,-3.6814,-3.6824,-3.6979,-3.7004,-3.7025,0,0,0,0,0,-3.6808,-3.6901,-3.6855,-3.6857,-3.6845,-3.6869,-3.6867,-3.6795,-3.6728,-3.677,-3.6728,-3.6653,-3.6716,-3.6658,-3.6662,-3.6734,-3.6799,-3.6811,-3.6823,-3.6969,-3.6999,-3.7025,0,0,0,0,0,0,-3.6965,-3.6892,-3.684,-3.6919,-3.6901,-3.6843,-3.6893,-3.6828,-3.683,-3.6816,-3.6728,-3.6719,-3.6792,-3.6768,-3.6705,-3.6842,-3.6745,-3.6759,-3.6855,-3.6883,-3.6906,-3.6911,-3.6576,0,0,0,0,0,-3.7009,-3.7033,-3.6969,-3.7044,-3.7038,-3.6968,-3.6975,-3.6921,-3.69,-3.6892,-3.6855,-3.6838,-3.6855,-3.6867,-3.6878,-3.6975,-3.6965,-3.7027,-3.705,-3.7069,-3.7082,-3.7134,-3.7162,-3.6868,-3.6868,-3.6868,0,0,-3.71,-3.7063,-3.7084,-3.7075,-3.7055,-3.7084,-3.6962,-3.6998,-3.7019,-3.6898,-3.6951,-3.6924,-3.69,-3.6979,-3.7012,-3.6962,-3.7161,-3.7084,-3.71,-3.7102,-3.7149,-3.7177,-3.7202,-3.6876,-3.6875,-3.6873,0,0,-3.728,-3.7254,-3.7315,-3.7297,-3.7268,-3.7221,-3.7237,-3.7189,-3.7165,-3.7218,-3.7128,-3.7153,-3.7182,-3.717,-3.7167,-3.7346,-3.7278,-3.7352,-3.7473,-3.7525,-3.7548,-3.7568,-3.7634,-3.7659,-3.7365,-3.7365,-3.7366,0,-3.7397,-3.7435,-3.7355,-3.7396,-3.7397,-3.7287,-3.735,-3.7337,-3.7315,-3.7318,-3.7262,-3.7298,-3.7274,-3.735,-3.7394,-3.7395,-3.7411,-3.7357,-3.7551,-3.757,-3.7588,-3.765,-3.7675,-3.7375,-3.7374,-3.7373,-3.7372,0,-3.7582,-3.761,-3.7663,-3.7644,-3.7649,-3.7702,-3.7631,-3.7647,-3.7593,-3.7553,-3.761,-3.7577,-3.7581,-3.7595,-3.7542,-3.7665,-3.7635,-3.7566,-3.7467,-3.7626,-3.7684,-3.7706,-3.7388,-3.7385,-3.7382,-3.738,0,0,-3.7859,-3.7795,-3.7816,-3.7807,-3.7768,-3.7789,-3.7838,-3.7841,-3.7858,-3.7846,-3.7886,-3.7915,-3.7851,-3.7849,-3.7794,-3.784,-3.7987,-3.7765,-3.7764,-3.781,-3.8123,-3.8176,-3.8205,-3.7941,-3.7945,-3.7948,-3.8126,0,-3.8031,-3.8109,-3.8039,-3.8131,-3.8158,-3.8056,-3.8098,-3.8081,-3.8045,-3.8064,-3.8025,-3.8047,-3.7961,-3.7959,-3.7999,-3.7961,-3.8049,-3.7946,-3.798,-3.7982,-3.7991,-3.8234,-3.829,-3.8459,-3.8147,-3.8151,-3.8154,0,-3.8242,-3.824,-3.8335,-3.8292,-3.8301,-3.834,-3.8339,-3.8357,-3.8336,-3.8307,-3.8306,-3.8239,-3.8286,-3.8189,-3.8254,-3.8186,-3.8196,-3.8179,-3.8184,-3.8186,-3.8079,-3.8245,-3.8511,-3.8538,-3.8187,-3.8185,-3.8182,0,-3.8438,-3.8459,-3.8519,-3.8514,-3.8465,-3.8496,-3.8477,-3.845,-3.8458,-3.8457,-3.8461,-3.8467,-3.847,-3.8477,-3.8415,-3.8349,-3.8489,-3.8386,-3.8469,-3.8471,-3.8504,-3.8503,-3.8778,-3.8508,-3.8507,-3.8507,-3.8506,0,-3.8638,-3.8701,-3.8607,-3.8644,-3.8712,-3.8632,-3.8703,-3.8673,-3.8651,-3.8683,-3.8595,-3.8627,-3.8542,-3.8566,-3.8517,-3.8581,-3.8582,-3.8562,-3.8549,-3.8571,-3.8574,-3.8577,-3.8565,-3.8513,-3.8512,-3.8511,-3.8509,0,-3.8869,-3.8808,-3.8867,-3.8816,-3.8805,-3.8858,-3.8815,-3.8849,-3.8808,-3.8849,-3.8854,-3.879,-3.8814,-3.8752,-3.8767,-3.8735,-3.8826,-3.8793,-3.8834,-3.8824,-3.8912,-3.8906,-3.92,-3.9235,-3.8941,-3.8944,-3.8946,0,-3.9001,-3.9047,-3.9002,-3.9016,-3.9002,-3.9026,-3.9033,-3.8957,-3.8968,-3.8949,-3.8986,-3.9002,-3.9011,-3.9055,-3.9011,-3.9022,-3.899,-3.9093,-3.8992,-3.9013,-3.8995,-3.8994,-3.8999,-3.9114,-3.9118,-3.9121,-3.9123,0,-3.9244,-3.9212,-3.9225,-3.9229,-3.924,-3.9239,-3.9232,-3.9249,-3.9168,-3.9186,-3.9208,-3.9216,-3.9231,-3.9249,-3.9251,-3.9234,-3.9167,-3.9155,-3.9175,-3.92,-3.9222,-3.9214,-3.8893,-3.9149,-3.9147,-3.9145,-3.9143,-3.9142,-3.9431,-3.9469,-3.9443,-3.9461,-3.9448,-3.9444,-3.9474,-3.9437,-3.9454,-3.946,-3.9414,-3.9448,-3.9428,-3.9424,-3.9414,-3.944,-3.9394,-3.9423,-3.943,-3.9439,-3.9455,-3.9217,-3.944,-3.9439,-3.9439,-3.9438,-3.9437,0,-3.9672,-3.965,-3.9668,-3.9661,-3.9677,-3.961,-3.96,-3.9618,-3.9648,-3.9634,-3.9645,-3.9674,-3.9692,-3.965,-3.9662,-3.9692,-3.9662,-3.9698,-3.9696,-3.9694,-3.9494,-3.9477,-3.9722,-3.9722,-3.9722,-3.9722,-3.9722,-3.9722,-3.9799,-3.9859,-3.9825,-3.9879,-3.9857,-3.9888,-3.9889,-3.9886,-3.9875,-3.991,-3.9924,-3.9896,-3.9873,-3.9883,-3.9897,-3.9885,-3.9895,-3.9942,-3.992,-3.9735,-3.9707,-3.9681,-3.9664,-3.9945,-3.9945,-4.0117,-4.0118,-4.012]},{"header":{"parameterUnit":"m.s-1","parameterCategory":1,"la1":30.2991,"la2":30.254,"lo1":-89.0895,"lo2":-89.0444,"dy":0.0017,"dx":0.0017,"nx":28,"ny":28,"refTime":"2023-03-31T21:00:00:Z","depth":0,"parameterNumber":3,"parameterNumberName":"V-component_of_WINDS"},"data":[0,0,0,0,0,0,0,0,0,0,0,0,0,0,0,0,0,0,0,0,0,0,0,0,0,0,0,0,0,0,0,0,0,0,0,0,0,0,0,0,0,0,0,0,0,0,0,0,0,0,0,0,0,0,0,0,0,0,1.0254,1.0254,0,1.0213,1.0213,1.0212,1.0214,1.0214,1.0215,1.0216,1.0169,1.0167,1.0166,0,0,0,0,0,0,0,0,0,0,0,0,0,1.0332,1.0331,1.0254,1.0254,1.0253,1.0213,1.0213,1.0212,1.0214,1.0214,1.0215,1.0216,1.017,1.0168,1.0166,0,0,0,0,0,0,0,0,0,0,0,0,0,1.0295,1.033,1.0254,1.0249,1.0249,1.0213,1.0213,1.0212,1.0214,1.0214,1.0215,1.0216,1.0171,1.0168,1.0165,1.0131,0,0,1.0157,1.0156,0,0,0,0,0,0,0,0,1.0297,1.0292,1.0251,1.025,1.0249,1.022,1.0223,1.0185,1.0213,1.0227,1.0216,1.0217,1.0185,1.0181,1.0171,1.0129,1.0127,1.0157,1.0155,1.0154,1.0153,0,0,0,0,0,0,0,1.03,1.0294,1.0238,1.025,1.0249,1.0248,1.0244,1.0216,1.0201,1.0226,1.0226,1.0221,1.0185,1.0174,1.017,1.0126,1.0157,1.0155,1.0153,1.0152,1.0054,1.0053,0,0,0,0,0,0,1.0304,1.0296,1.0239,1.0237,1.0276,1.0246,1.0242,1.0228,1.0202,1.0199,1.022,1.0221,1.0178,1.0173,1.0169,1.0126,1.0154,1.0152,1.015,1.0055,1.0054,1.0052,0,0,0,0,0,0,1.0306,1.0299,1.0241,1.0266,1.0259,1.0244,1.0229,1.0227,1.0216,1.0198,1.0195,1.0212,1.0179,1.0172,1.0141,1.0125,1.015,1.0148,1.0056,1.0054,1.0053,1.0042,0,0,0,0,0,0,1.0308,1.0299,1.0287,1.0266,1.0258,1.0214,1.0228,1.0225,1.0212,1.0213,1.0189,1.0186,1.0179,1.0145,1.0138,1.0122,1.0146,1.0057,1.0055,1.0053,1.0044,1.004,1.0037,0,0,0,0,0,1.0311,1.0284,1.0286,1.0279,1.0242,1.0213,1.0208,1.0202,1.0211,1.0197,1.0186,1.0187,1.0128,1.0141,1.0134,1.0116,1.0058,1.0056,1.0054,1.0045,1.0041,1.0038,0,0,0,0,0,0,1.0301,1.0281,1.0283,1.025,1.0233,1.0214,1.0196,1.0197,1.0177,1.0179,1.017,1.0165,1.0133,1.0122,1.0137,1.0082,1.0094,1.009,1.009,1.0086,1.0083,1.0086,1.0144,0,0,0,0,0,1.0296,1.0276,1.0259,1.0231,1.0223,1.0211,1.0199,1.0195,1.0177,1.017,1.0156,1.0138,1.0115,1.0101,1.0079,1.0043,1.0037,1.0027,1.0024,1.0022,1.0018,0.9998,0.9993,1.0045,1.0045,1.0045,0,0,1.0283,1.027,1.0257,1.0229,1.0216,1.0194,1.0205,1.0182,1.0165,1.0166,1.0135,1.0125,1.0104,1.007,1.0054,1.006,1.0003,1.0019,1.0017,1.0014,0.9995,0.999,0.9986,1.0044,1.0044,1.0044,0,0,1.0249,1.0237,1.0213,1.02,1.0181,1.0174,1.0168,1.0149,1.0142,1.0112,1.0112,1.0093,1.0054,1.0039,1.0027,0.9989,0.9989,0.9983,0.9965,0.9946,0.9942,0.9938,0.9924,0.9919,0.9979,0.9979,0.9979,0,1.0235,1.0203,1.0199,1.0176,1.0163,1.0166,1.014,1.0128,1.0102,1.0093,1.01,1.0053,1.0039,1.0001,0.9992,0.9983,0.9975,0.9984,0.9943,0.9939,0.9936,0.9922,0.9917,0.9978,0.9978,0.9979,0.9979,0,1.0187,1.0165,1.0147,1.0124,1.011,1.0085,1.0077,1.0063,1.0062,1.0054,1.0023,1.0007,0.9982,0.9973,0.9971,0.9936,0.994,0.9945,0.9957,0.993,0.9917,0.9912,0.9977,0.9978,0.9978,0.9978,0,0,1.0142,1.012,1.0113,1.0103,1.0083,1.0065,1.0042,1.0019,1.0007,0.999,0.9969,0.9937,0.9943,0.9929,0.9925,0.9908,0.9879,0.9916,0.9915,0.9908,0.9838,0.9833,0.9827,0.988,0.9879,0.9878,0.9839,0,1.0105,1.0063,1.006,1.0022,1.0002,1.0005,0.9984,0.997,0.9962,0.9943,0.9934,0.9912,0.9921,0.9913,0.9897,0.9886,0.9864,0.9889,0.9859,0.9857,0.9862,0.982,0.9814,0.9778,0.9834,0.9834,0.9833,0,1.0055,1.0038,0.9998,0.9983,0.9974,0.9955,0.9935,0.9917,0.9901,0.9896,0.9882,0.9881,0.9856,0.987,0.9835,0.9852,0.984,0.9833,0.9831,0.9826,0.9842,0.9812,0.9766,0.976,0.9825,0.9826,0.9826,0,1.0025,0.9993,0.9965,0.9956,0.9937,0.9924,0.9915,0.99,0.9887,0.9869,0.9861,0.984,0.9828,0.9811,0.9804,0.9816,0.9769,0.9783,0.9763,0.9763,0.9751,0.9751,0.9701,0.9747,0.9747,0.9747,0.9747,0,0.9982,0.9957,0.9951,0.9934,0.9906,0.9904,0.9876,0.9868,0.9855,0.9835,0.9837,0.9819,0.9812,0.9792,0.9787,0.9758,0.9753,0.9748,0.9746,0.9747,0.9747,0.9737,0.9738,0.9745,0.9746,0.9746,0.9746,0,0.9943,0.9938,0.9908,0.9893,0.9889,0.987,0.9857,0.984,0.9834,0.9809,0.9803,0.9793,0.977,0.9763,0.9735,0.9731,0.9697,0.9699,0.9703,0.9702,0.9682,0.9683,0.9621,0.9613,0.9666,0.9666,0.9665,0,0.9915,0.9896,0.988,0.9868,0.986,0.984,0.9827,0.9825,0.9811,0.9792,0.9777,0.9755,0.9737,0.97,0.9689,0.9668,0.9668,0.9648,0.9664,0.9665,0.9666,0.9666,0.9664,0.9644,0.9643,0.9643,0.9642,0,0.9865,0.9864,0.9846,0.9828,0.9813,0.9798,0.9784,0.9774,0.9769,0.9754,0.9731,0.9718,0.969,0.9667,0.9646,0.9636,0.9638,0.9638,0.9632,0.9631,0.9633,0.963,0.9692,0.9639,0.9639,0.9639,0.9639,0.964,0.9829,0.9813,0.98,0.978,0.977,0.9757,0.974,0.9733,0.9715,0.9693,0.9693,0.9668,0.9653,0.9625,0.9614,0.9594,0.96,0.9591,0.9589,0.9586,0.9584,0.9639,0.9591,0.9591,0.9591,0.9591,0.9591,0,0.9778,0.977,0.9753,0.9733,0.9718,0.9724,0.9709,0.9695,0.9674,0.9661,0.9644,0.9618,0.9597,0.9586,0.9565,0.9551,0.9551,0.9545,0.9545,0.9542,0.9581,0.9588,0.9545,0.9545,0.9545,0.9545,0.9545,0.9545,0.9749,0.9722,0.972,0.9687,0.968,0.9657,0.9648,0.9636,0.9625,0.9597,0.958,0.9574,0.9561,0.9539,0.952,0.9517,0.9508,0.9502,0.9499,0.9535,0.954,0.9544,0.955,0.95,0.95,0.9462,0.9461,0.9461]}]]